PTD-R (TYVAK-0127)

Last updated on Mon Sep 16 2024 00:02:03 GMT+0000 (Coordinated Universal Time)

1 60523U 24149BH 24258.94017473 .00030946 00000+0 14193-2 0 9993 2 60523 97.4372 334.0898 0008037 49.4425 310.7509 15.20353210 4428
UTC large
Height (km)
Speed (km/s)
/
Latitude / Longitude
Inclination (degrees)
Orbital Period (minutes)
Azimuth
Elevation
Range (km)
Doppler Factor

Next 0 passes for location: London (51.5072 / 0.1276)

Sorry there are no passes over London.